Regional Weather Roundup
Issued by NWS Raleigh/Durham, NC

Home | Current Version | Previous Version | Text Only | Print | Product List | Glossary On
Versions: 1 2 3 4 5 6 7 8 9 10 11 12 13 14 15 16 17 18 19 20 21 22 23 24 25 26 27 28 29 30 31 32 33 34 35 36 37 38 39 40 41 42 43 44 45 46 47 48 49 50
000
ASUS42 KRAH 220610
RWRRAH
NORTH CAROLINA WEATHER ROUNDUP
NATIONAL WEATHER SERVICE RALEIGH NC
200 AM EDT MON SEP 22 2014

NOTE: "FAIR" INDICATES FEW OR NO CLOUDS BELOW 12,000 FEET WITH NO
SIGNIFICANT WEATHER AND/OR OBSTRUCTIONS TO VISIBILITY.

NCZ001-053-055-056-065-067-220700-
WESTERN NORTH CAROLINA

CITY           SKY/WX    TMP DP  RH WIND       PRES   REMARKS
ASHEVILLE      MOCLDY    66  54  65 N16       30.03R
JEFFERSON      CLEAR     57  46  65 NW8       30.02S
HICKORY        PTCLDY    68  58  70 VRB5      29.95R
RUTHERFORDTON  NOT AVBL
MOUNT AIRY     PTCLDY    68  54  60 W3        29.96S
$$

NCZ021-022-025-041-071-084-088-220700-
CENTRAL NORTH CAROLINA

CITY           SKY/WX    TMP DP  RH WIND       PRES   REMARKS
CHARLOTTE      CLOUDY    71  66  84 CALM      29.92R
GREENSBORO     PTCLDY    71  61  70 NW7       29.91R
WINSTON-SALEM  PTCLDY    70  60  70 NW7       29.93S
RALEIGH-DURHAM MOCLDY    70  67  90 CALM      29.88R
FORT BRAGG     CLEAR     75  65  71 SW6       29.88R
FAYETTEVILLE   CLEAR     73  65  75 SW8       29.87S
$$

NCZ011-015-027-028-043-044-047-080-103-220700-
NORTHEASTERN NORTH CAROLINA

CITY           SKY/WX    TMP DP  RH WIND       PRES   REMARKS
ROANOKE RAPIDS CLOUDY    72  64  78 W3        29.85R
ROCKY MT-WILSO CLOUDY    71  68  90 S5        29.85S
GREENVILLE     MOCLDY    73  66  78 W3        29.88S
WASHINGTON     CLEAR     71  65  81 SW5       29.85F
ELIZABETH CITY NOT AVBL
MANTEO         CLEAR     75  66  73 SW14      29.84R
CAPE HATTERAS  CLEAR     75  71  87 W14G24    29.87S
$$

NCZ078-087-090-091-093-098-101-220700-
SOUTHEASTERN NORTH CAROLINA

CITY           SKY/WX    TMP DP  RH WIND       PRES   REMARKS
LUMBERTON      CLOUDY    74  65  73 SW9       29.88F
GOLDSBORO      MOCLDY    74  70  87 CALM      29.84F
KINSTON        CLEAR     73  65  75 SW7       29.87S
KENANSVILLE    MOCLDY    72  64  76 SW5       29.88F
NEW BERN       CLEAR     74  65  73 SW7       29.88S
CHERRY POINT   CLEAR     73  66  78 SW8       29.89S
BEAUFORT       CLEAR     78  72  81 SW12      29.88F
JACKSONVILLE   CLEAR     72  66  81 SW8       29.88S
WILMINGTON     CLEAR     74  68  81 SW8       29.90S
$$



USA.gov is the U.S. government's official web portal to all federal, state and local government web resources and services.